TimeEST,TemperatureF,Dew PointF,Humidity,Sea Level PressureIn,VisibilityMPH,Wind Direction,Wind SpeedMPH,Gust SpeedMPH,PrecipitationIn,Events,Conditions,WindDirDegrees,DateUTC
12:53 AM,39.0,37.0,93,30.08,-9999.0,Calm,Calm,-,N/A,,Unknown,0,2014-03-08 05:53:00
1:53 AM,37.0,35.1,93,30.08,-9999.0,Calm,Calm,-,N/A,,Unknown,0,2014-03-08 06:53:00
2:53 AM,37.0,35.1,93,30.08,-9999.0,Calm,Calm,-,N/A,,Unknown,0,2014-03-08 07:53:00
3:53 AM,35.1,33.1,92,30.08,-9999.0,Calm,Calm,-,N/A,,Unknown,0,2014-03-08 08:53:00
4:53 AM,34.0,33.1,96,30.10,-9999.0,Calm,Calm,-,N/A,,Unknown,0,2014-03-08 09:53:00
5:53 AM,34.0,33.1,96,30.12,-9999.0,Calm,Calm,-,N/A,,Unknown,0,2014-03-08 10:53:00
6:53 AM,35.1,33.1,92,30.14,-9999.0,Calm,Calm,-,N/A,,Unknown,0,2014-03-08 11:53:00
7:53 AM,42.1,41.0,96,30.16,-9999.0,Calm,Calm,-,N/A,,Unknown,0,2014-03-08 12:53:00
8:53 AM,51.1,45.0,80,30.18,-9999.0,NE,3.5,-,N/A,,Unknown,40,2014-03-08 13:53:00
9:53 AM,55.0,44.1,67,30.20,-9999.0,NE,3.5,-,N/A,,Unknown,50,2014-03-08 14:53:00
10:53 AM,59.0,45.0,60,30.21,-9999.0,NE,3.5,-,N/A,,Unknown,50,2014-03-08 15:53:00
11:53 AM,62.1,45.0,53,30.19,-9999.0,Calm,Calm,-,N/A,,Unknown,0,2014-03-08 16:53:00
12:53 PM,64.9,46.9,52,30.16,-9999.0,Variable,4.6,-,N/A,,Unknown,0,2014-03-08 17:53:00
1:53 PM,69.1,45.0,42,30.14,-9999.0,North,3.5,-,N/A,,Unknown,10,2014-03-08 18:53:00
2:53 PM,70.0,45.0,41,30.12,-9999.0,North,5.8,-,N/A,,Unknown,360,2014-03-08 19:53:00
3:53 PM,70.0,45.0,41,30.10,-9999.0,Calm,Calm,-,N/A,,Unknown,0,2014-03-08 20:53:00
4:53 PM,66.9,50.0,54,30.10,-9999.0,SW,6.9,-,N/A,,Unknown,220,2014-03-08 21:53:00
5:53 PM,64.9,51.1,61,30.11,-9999.0,WNW,9.2,-,N/A,,Unknown,300,2014-03-08 22:53:00
6:53 PM,57.9,48.9,72,30.13,-9999.0,WSW,3.5,-,N/A,,Unknown,250,2014-03-08 23:53:00
7:53 PM,55.0,50.0,83,30.14,-9999.0,SW,3.5,-,0.01,,Unknown,220,2014-03-09 00:53:00
8:53 PM,53.1,50.0,89,30.17,-9999.0,Calm,Calm,-,N/A,,Unknown,0,2014-03-09 01:53:00
9:53 PM,50.0,46.9,89,30.18,-9999.0,Calm,Calm,-,N/A,,Unknown,0,2014-03-09 02:53:00
10:53 PM,48.0,45.0,89,30.18,-9999.0,Calm,Calm,-,N/A,,Unknown,0,2014-03-09 03:53:00
11:53 PM,46.0,44.1,93,30.16,-9999.0,Calm,Calm,-,N/A,,Unknown,0,2014-03-09 04:53:00